Regional Weather Roundup
Issued by NWS Columbia, SC

Home | Current Version | Previous Version | Text Only | Print | Product List | Glossary On
Versions: 1 2 3 4 5 6 7 8 9 10 11 12 13 14 15 16 17 18 19 20 21 22 23 24 25 26 27 28 29 30 31 32 33 34 35 36 37 38 39 40 41 42 43 44 45 46 47 48 49 50
000
ASUS42 KCAE 050610
RWRCAE
REGIONAL WEATHER ROUNDUP
NATIONAL WEATHER SERVICE COLUMBIA SC
200 AM EDT SUN JUL 05 2015

NOTE: "FAIR" INDICATES FEW OR NO CLOUDS BELOW 12,000 FEET WITH NO
SIGNIFICANT WEATHER AND/OR OBSTRUCTIONS TO VISIBILITY.

NOT ALL STATIONS ARE QUALITY CONTROLLED BY THE NATIONAL
WEATHER SERVICE. USE DATA WITH CAUTION...ESPECIALLY
DEWPOINT OBSERVATIONS.

SCZ001>056-GAZ040-063>065-077-050700-
...UPSTATE SOUTH CAROLINA...

CITY           SKY/WX    TMP DP  RH WIND       PRES   REMARKS
ANDERSON       MOCLDY    73  70  90 S3        30.07F
6HR MIN TEMP:  72; 6HR MAX TEMP:  81;

SPARTANBURG      N/A     73  70  88 SW3       30.07S
CLEMSON        MOCLDY    73  69  87 CALM      30.09S
6HR MIN TEMP:  73; 6HR MAX TEMP:  81; 6HR PCP:  0.02;

GREENVILLE     MOCLDY    74  68  81 S3        30.09F
6HR MIN TEMP:  74; 6HR MAX TEMP:  81;

GREENWOOD      CLOUDY    73  70  90 S9        30.10S
6HR MIN TEMP:  73; 6HR MAX TEMP:  81;

GREER          MOCLDY    73  69  87 SW5       30.07F
6HR MIN TEMP:  73; 6HR MAX TEMP:  81;

ROCK HILL      MOCLDY    74  69  85 SW6       30.08S
6HR MIN TEMP:  72; 6HR MAX TEMP:  81;

CHESTER        CLOUDY    73  70  88 SW3       30.09S


...CENTRAL SOUTH CAROLINA...

CITY           SKY/WX    TMP DP  RH WIND       PRES   REMARKS
COLUMBIA APT   CLOUDY    75  67  76 SW6       30.07S
6HR MIN TEMP:  75; 6HR MAX TEMP:  86;

COLUMBIA OWENS CLOUDY    75  67  76 CALM      30.09S
6HR MIN TEMP:  74; 6HR MAX TEMP:  86;

DARLINGTON     PTCLDY    75  64  69 SW9       30.08S
6HR MIN TEMP:  75; 6HR MAX TEMP:  84;

FLORENCE       PTCLDY    76  67  73 SW7       30.07F
6HR MIN TEMP:  76; 6HR MAX TEMP:  85;

MCENTIRE ANGB  CLOUDY    70  67  90 S3        30.08F
6HR MIN TEMP:  70; 6HR MAX TEMP:  84;

ORANGEBURG     MOCLDY    71  68  90 S3        30.09F
6HR MIN TEMP:  71; 6HR MAX TEMP:  82;

SUMTER SHAW    CLOUDY    73  67  82 S3        30.06F
6HR MIN TEMP:  73; 6HR MAX TEMP:  84;

NEWBERRY       CLOUDY    72  68  88 SW7       30.11S
BARNWELL       FAIR      72  72 100 SW3       30.10F
MANNING        FAIR      72  68  88 CALM      30.09S
CAMDEN         FAIR      75  68  78 S5        30.08S
LANCASTER      CLOUDY    73  73 100 SW3       30.08S
WINNSBORO      CLOUDY    73  68  83 SW6       30.08S


...EASTERN AND COASTAL SOUTH CAROLINA...

CITY           SKY/WX    TMP DP  RH WIND       PRES   REMARKS
MYRTLE BEACH   PTCLDY    77  63  61 SW6       30.11R
6HR MIN TEMP:  75; 6HR MAX TEMP:  84;

N MYRTLE BCH   PTCLDY    76  66  71 SW5       30.08S
6HR MIN TEMP:  76; 6HR MAX TEMP:  83;

CONWAY         FAIR      73  68  83 SW3       30.09R HAZE
MARION         FAIR      75  64  69 CALM      30.08S
HARTSVILLE     FAIR      73  64  73 SW3       30.07S
FLORENCE       PTCLDY    76  67  73 SW7       30.07F
6HR MIN TEMP:  76; 6HR MAX TEMP:  85;

DARLINGTON     PTCLDY    75  64  69 SW9       30.08S
6HR MIN TEMP:  75; 6HR MAX TEMP:  84;

CHARLESTON APT PTCLDY    73  71  93 CALM      30.09F
6HR MIN TEMP:  72; 6HR MAX TEMP:  77; 6HR PCP:  0.04;

MOUNT PLEASANT LGT RAIN  73  72  94 S3        30.10S
WALTERBORO     PTCLDY    70  70 100 CALM      30.11S
BEAUFORT       CLEAR     74  72  93 S3        30.10F
6HR MIN TEMP:  73; 6HR MAX TEMP:  75; 6HR PCP: TRACE;



...EASTERN GEORGIA...

CITY           SKY/WX    TMP DP  RH WIND       PRES   REMARKS
AUGUSTA BUSH F CLOUDY    73  71  93 S5        30.08S
6HR MIN TEMP:  72; 6HR MAX TEMP:  82;

AUGUSTA DANIEL CLOUDY    74  70  87 S6        30.09F
6HR MIN TEMP:  74; 6HR MAX TEMP:  83;

THOMSON        CLOUDY    75  74  98 CALM      30.12F
6HR MIN TEMP:  74; 6HR MAX TEMP:  82;

WASHINGTON     FAIR      77  77 100 S3        30.07F
CLAXTON        FAIR      72  72 100 CALM      30.11F
SYLVANIA       PTCLDY    73  73 100 CALM      30.12S
6HR MIN TEMP:  73; 6HR MAX TEMP:  74;

SAVANNAH       CLEAR     73  69  87 SW7       30.12S
6HR MIN TEMP:  73; 6HR MAX TEMP:  75; 6HR PCP: TRACE;



...SOUTHERN NORTH CAROLINA...

CITY           SKY/WX    TMP DP  RH WIND       PRES   REMARKS
CHARLOTTE      CLOUDY    75  67  76 SW6       30.07F
6HR MIN TEMP:  74; 6HR MAX TEMP:  80;

MONROE         MOCLDY    74  67  78 SW7       30.07S
6HR MIN TEMP:  73; 6HR MAX TEMP:  83;

WADESBORO      MOCLDY    75  66  74 CALM      30.06S
6HR MIN TEMP:  74; 6HR MAX TEMP:  84;

ROCKINGHAM     MOCLDY    75  70  83 SW6       30.07S
6HR MIN TEMP:  75; 6HR MAX TEMP:  82;

ASHEVILLE      CLOUDY    68  65  90 CALM      30.14S
6HR MIN TEMP:  67; 6HR MAX TEMP:  75;


$$



USA.gov is the U.S. government's official web portal to all federal, state and local government web resources and services.